Regional Weather Roundup
Issued by NWS Goodland, KS

Home | Current Version | Previous Version | Text Only | Print | Product List | Glossary Off
Versions: 1 2 3 4 5 6 7 8 9 10 11 12 13 14 15 16 17 18 19 20 21 22 23 24 25 26 27 28 29 30 31 32 33 34 35 36 37 38 39 40 41 42 43 44 45 46 47 48 49 50

000
ASUS43 KGLD 230908
RWRGLD

GOODLAND FORECAST AREA HOURLY WEATHER ROUNDUP
NATIONAL WEATHER SERVICE GOODLAND KS
200 AM MST SUN NOV 23 2014

...OFFICIAL OBSERVATIONS...

CITY           SKY/WX    TMP DP  RH WIND       PRES   REMARKS
GOODLAND KS    CLOUDY    41  22  46 N10       29.48R
HILL CITY KS   CLOUDY    50  47  89 CALM      29.45F
IMPERIAL NEB   CLOUDY    49  25  39 NW18G26   29.56R
MCCOOK NEB     CLOUDY    43  32  65 W7        29.46R
AKRON CO       CLOUDY    45  27  49 N28G33    29.61R
BURLINGTON CO  CLOUDY    50  20  30 NW18G25   29.51R
LIMON CO       CLOUDY    42  20  41 N13       29.57R
$$

...UNOFFICIAL OBSERVATIONS...

CITY           SKY/WX    TMP DP  RH WIND       PRES   REMARKS
COLBY KS       CLOUDY    46  34  61 NW13      29.45S
GOVE KS          N/A     46  32  58 MISG        N/A
NORTON KS      CLOUDY    48  43  81 CALM      29.44S
SHARON SPRINGS   N/A     40  27  60 NW12        N/A
TRIBUNE KS     MOCLDY    39  28  65 NW13      29.44S
TRENTON NEB      N/A     46  32  58 NW16        N/A
YUMA CO          N/A     47  23  39 N18         N/A
$$



USA.gov is the U.S. government's official web portal to all federal, state and local government web resources and services.